User: anonymous   Login
Location: Plymouth
(43.7570°N, 71.6890°W)
Time: 02:15:36
(UTC-04:00)
Language:

Cosmos 2016 Rocket - Orbit

View from above orbital plane
View from above orbital plane
View from above satellite
View from above satellite

Ground track
Ground track

The orbit data is extracted from the following two-line orbital elements,

1 19922U 89028B   14301.82537343  .00000069  00000-0  53632-4 0  1040
2 19922 082.9609 060.6408 0037382 062.8294 101.7264 13.77114915284775
Epoch (UTC): 28 October 2014 19:48:32
Eccentricity: 0.0037382
inclination: 82.9609°
perigee height: 946 km
apogee height: 1001 km
right ascension of ascending node: 60.6408°
argument of perigee: 62.8294°
revolutions per day: 13.77114915
mean anomaly at epoch: 101.7264°
orbit number at epoch: 28477

The dashed part of the orbit path shows where the satellite is in the earth's shadow,  

DLR